Weather in Zaborye

Russia / Ryazan Oblast     54°49′35″N   39°53′48″E
temp.,
°C
wind,
m/s
gust,
m/s
humid.,
%
clouds,
%
prec.,
mm/h
press.,
hPa
HPBL,
m
1 march, mon
mon100:00−10nne229582 0.0 102121
03:00−12n129642 0.0 102321
06:00−10nw129894 0.1 102421
09:00−8wsw119689 0.1 102551
12:00−3wsw359291 0.1 1025386
15:00−1wsw479194 0.1 1023655
18:00−1wsw4990100 0.1 1021644
21:000wsw51290100 0.1 1018713
2 march, tue
tue200:00+1wsw51392100 0.0 1015703
03:00+1w51293100 0.0 1013649
06:00+1w61394100 0.0 1009780
09:00+1wnw61398100 0.1 1009781
12:00+2wnw51089100 0.2 1007990
15:00+2wnw498894 0.4 1008936
18:000nw4118795 0.1 1007548
21:00−2nw4118896 0.2 1009472
3 march, wed
wed300:00−2nw4119598 0.3 1009695
03:00−3nw4119499 0.5 1011697
06:00−6nw5129066 0.1 1012657
09:00−5nw6128583 0.1 1014793
12:00−2nw5107557 0.0 1014972
15:00−1wnw6108267 0.0 10141082
18:00−2wnw4119094 0.1 1013635
21:00−2w4129395 0.1 1014664
4 march, thu
thu400:00−3w4119397 0.1 1013474
03:00−2wsw4119197 0.1 1011688
06:00−2wsw61390100 0.1 1008550
09:00−1wsw71686100 0.1 1005782
12:00+1wsw71580100 0.0 10011052
15:00+2wsw71484100 0.0 10001176
18:00+1w61390100 0.0 999998
21:000w51297100 0.1 1000694
5 march, fri
fri500:00−2nw2783100 0.4 1001286
03:00−4nw2588100 0.4 1003173
06:00−5nnw2492100 0.0 1005160
09:00−5nnw128992 0.0 1006182
12:00−2n1177100 0.0 1007569
15:00−2ene0173100 0.0 1008700
18:00−4e0185100 0.0 100721
21:00−4ne1192100 0.0 100847